Location: Marcé
(47.5801°N, 0.3280°W)
Time: 07:16:09
(UTC+01:00)

Altair - Pass Details

Date: 16 December 2021
Orbit: 1501 x 1683 km, 47.2° (Epoch: 21 January)

Event Time Altitude Azimuth Distance (km) Brightness Sun altitude
Rises 11:16:50 0° 190° (S) 4,889 11.1 15.6°
Reaches altitude 10° 11:20:55 10° 176° (S) 3,882 11.3 15.9°
Maximum altitude 11:27:55 22° 130° (SE) 2,976 10.3 16.3°
Drops below altitude 10° 11:34:46 10° 84° (E) 3,794 9.8 16.7°
Sets 11:38:40 0° 71° (ENE) 4,751 10.1 16.9°
